Simultaneous Nadir Overpasses (SNOs) Predictions

Prediction of SNOs between GOES-15 and TERRA Satellite Orbit:

Table of predicted SNOs for the next 14.0 days since TLE Epoch: 9/3/2022
Index Date Time (GOES-15) GOES-15 Lat,Lon TERRA Lat,Lon Distance(km) Time Diff (sec)
1 09/03/2022 18:42:59 -0.25,-127.91 -0.54,-126.49 160.56 80
2 09/04/2022 07:01:43 0.27,-127.84 -0.52,-131.69 437.42 80
3 09/05/2022 18:30:44 -0.24,-127.86 -1.17,-123.54 491.82 80
4 09/06/2022 06:49:27 0.26,-127.79 0.05,-128.73 106.50 80
5 09/08/2022 06:39:52 0.26,-127.74 0.69,-125.78 224.11 80
6 09/08/2022 18:58:27 -0.28,-127.78 0.38,-130.94 359.44 80
7 09/10/2022 18:46:11 -0.28,-127.73 -0.21,-127.98 28.62 80
8 09/12/2022 18:36:36 -0.28,-127.68 -0.86,-125.02 302.25 80
9 09/13/2022 06:57:59 0.30,-127.63 -0.25,-130.22 294.37 80
10 09/15/2022 06:43:03 0.29,-127.57 0.35,-127.25 35.95 80
